PIA452 OPSD-OPIS

Flight info

Callsign PIA452
Flight time 0h 43m
Altitude 28000
Route DELDA J155 GOTKO J131 BOBAM
Aircraft A320/M-VGDW/C

Departure

Time 2026-04-28 21:48
Airport Skardu International Airport (OPSD)

Arrival

Time 2026-04-28 22:31
Airport Islamabad International Airport (OPIS)
Time Latitude Longitude Altitude Speed Heading
2026-04-28 21:35 35.33106 75.54180 7390 ft 0 kts 147°
2026-04-28 21:36 35.33111 75.54177 7390 ft 3 kts 147°
2026-04-28 21:36 35.33125 75.54163 7392 ft 3 kts 120°
2026-04-28 21:37 35.33131 75.54142 7393 ft 3 kts 83°
2026-04-28 21:37 35.33128 75.54122 7393 ft 2 kts 64°
2026-04-28 21:37 35.33119 75.54107 7393 ft 0 kts 56°
2026-04-28 21:39 35.33130 75.54126 7393 ft 8 kts 55°
2026-04-28 21:39 35.33163 75.54184 7394 ft 9 kts 56°
2026-04-28 21:39 35.33195 75.54244 7394 ft 8 kts 57°
2026-04-28 21:39 35.33223 75.54296 7390 ft 6 kts 57°
2026-04-28 21:40 35.33248 75.54345 7388 ft 8 kts 57°
2026-04-28 21:40 35.33283 75.54362 7390 ft 4 kts 335°
2026-04-28 21:40 35.33320 75.54331 7392 ft 14 kts 326°
2026-04-28 21:40 35.33416 75.54253 7391 ft 17 kts 326°
2026-04-28 21:41 35.33515 75.54173 7393 ft 17 kts 327°
2026-04-28 21:41 35.33621 75.54089 7391 ft 19 kts 327°
2026-04-28 21:41 35.33732 75.53997 7390 ft 19 kts 325°
2026-04-28 21:41 35.33849 75.53905 7387 ft 21 kts 328°
2026-04-28 21:42 35.33970 75.53811 7391 ft 20 kts 326°
2026-04-28 21:42 35.34088 75.53715 7390 ft 21 kts 327°
2026-04-28 21:42 35.34210 75.53625 7391 ft 21 kts 330°
2026-04-28 21:42 35.34331 75.53529 7394 ft 21 kts 328°
2026-04-28 21:43 35.34457 75.53443 7392 ft 21 kts 333°
2026-04-28 21:43 35.34589 75.53366 7391 ft 20 kts 332°
2026-04-28 21:43 35.34682 75.53261 7391 ft 18 kts 315°
2026-04-28 21:43 35.34777 75.53164 7394 ft 18 kts 330°
2026-04-28 21:44 35.34886 75.53086 7392 ft 18 kts 328°
2026-04-28 21:44 35.34991 75.53004 7394 ft 18 kts 327°
2026-04-28 21:44 35.35090 75.52916 7396 ft 16 kts 293°
2026-04-28 21:44 35.35136 75.52832 7393 ft 11 kts 341°
2026-04-28 21:45 35.35154 75.52845 7394 ft 0 kts 90°
2026-04-28 21:45 35.35147 75.52877 7393 ft 4 kts 124°
2026-04-28 21:45 35.35131 75.52891 7392 ft 0 kts 147°
2026-04-28 21:47 35.35129 75.52892 7392 ft 7 kts 147°
2026-04-28 21:47 35.34838 75.53123 7392 ft 90 kts 147°
2026-04-28 21:47 35.34121 75.53694 7388 ft 157 kts 147°
2026-04-28 21:48 35.33072 75.54554 7564 ft 194 kts 134°
2026-04-28 21:48 35.31966 75.55533 8300 ft 196 kts 143°
2026-04-28 21:48 35.31032 75.56683 9285 ft 192 kts 110°
2026-04-28 21:48 35.31196 75.58348 9556 ft 219 kts 51°
2026-04-28 21:49 35.32578 75.59079 9775 ft 231 kts 351°
2026-04-28 21:49 35.34033 75.58221 10173 ft 239 kts 322°
2026-04-28 21:49 35.35316 75.56836 10497 ft 255 kts 316°
2026-04-28 21:49 35.36637 75.55271 10845 ft 272 kts 315°
2026-04-28 21:50 35.38010 75.53583 11259 ft 287 kts 314°
2026-04-28 21:50 35.39424 75.51782 11744 ft 299 kts 313°
2026-04-28 21:50 35.40866 75.49885 12241 ft 309 kts 312°
2026-04-28 21:50 35.42326 75.47922 12932 ft 311 kts 312°
2026-04-28 21:51 35.43801 75.45991 13796 ft 308 kts 313°
2026-04-28 21:51 35.45258 75.44093 14612 ft 303 kts 312°
2026-04-28 21:51 35.46585 75.42081 15261 ft 303 kts 302°
2026-04-28 21:51 35.47608 75.39832 15993 ft 301 kts 295°
2026-04-28 21:52 35.48474 75.37510 16737 ft 298 kts 292°
2026-04-28 21:52 35.49282 75.35218 17493 ft 295 kts 292°
2026-04-28 21:52 35.50098 75.32928 18236 ft 293 kts 293°
2026-04-28 21:52 35.50936 75.30650 18847 ft 292 kts 294°
2026-04-28 21:53 35.51795 75.28392 19390 ft 293 kts 295°
2026-04-28 21:53 35.52680 75.26122 19861 ft 296 kts 295°
2026-04-28 21:53 35.53592 75.23817 20241 ft 304 kts 295°
2026-04-28 21:53 35.54543 75.21436 20485 ft 316 kts 295°
2026-04-28 21:54 35.55528 75.18965 20734 ft 328 kts 295°
2026-04-28 21:54 35.56550 75.16407 20985 ft 339 kts 295°
2026-04-28 21:54 35.57603 75.13766 21232 ft 351 kts 296°
2026-04-28 21:54 35.58694 75.11029 21487 ft 361 kts 296°
2026-04-28 21:55 35.59813 75.08219 21744 ft 372 kts 296°
2026-04-28 21:55 35.60948 75.05358 21989 ft 382 kts 296°
2026-04-28 21:55 35.62127 75.02380 22236 ft 392 kts 296°
2026-04-28 21:55 35.63337 74.99326 22496 ft 402 kts 296°
2026-04-28 21:56 35.64575 74.96200 22666 ft 413 kts 295°
2026-04-28 21:56 35.65836 74.93005 23082 ft 417 kts 296°
2026-04-28 21:56 35.67104 74.89794 23558 ft 419 kts 295°
2026-04-28 21:56 35.67950 74.87647 23819 ft 421 kts 295°
2026-04-28 21:57 35.69660 74.83287 24301 ft 424 kts 295°
2026-04-28 21:57 35.70509 74.81121 24534 ft 425 kts 295°
2026-04-28 21:57 35.71801 74.77849 24890 ft 427 kts 296°
2026-04-28 21:57 35.73174 74.74603 25237 ft 429 kts 298°
2026-04-28 21:58 35.74431 74.71268 25591 ft 430 kts 286°
2026-04-28 21:58 35.74928 74.67646 25931 ft 430 kts 270°
2026-04-28 21:58 35.74570 74.64001 26244 ft 431 kts 253°
2026-04-28 21:58 35.73376 74.60621 26562 ft 432 kts 237°
2026-04-28 21:59 35.71496 74.57731 26861 ft 434 kts 227°
2026-04-28 21:59 35.69458 74.54980 27149 ft 437 kts 227°
2026-04-28 21:59 35.67399 74.52210 27470 ft 439 kts 227°
2026-04-28 22:00 35.63283 74.46681 28016 ft 442 kts 228°
2026-04-28 22:00 35.61230 74.43925 28064 ft 429 kts 228°
2026-04-28 22:00 35.59223 74.41227 28065 ft 426 kts 228°
2026-04-28 22:01 35.55196 74.35807 28068 ft 438 kts 228°
2026-04-28 22:01 35.53164 74.33077 28055 ft 427 kts 228°
2026-04-28 22:01 35.51161 74.30398 28057 ft 425 kts 228°
2026-04-28 22:02 35.47159 74.25059 28071 ft 424 kts 228°
2026-04-28 22:02 35.43158 74.19728 28076 ft 424 kts 228°
2026-04-28 22:03 35.39188 74.14432 28066 ft 424 kts 228°
2026-04-28 22:03 35.35198 74.09109 28065 ft 424 kts 228°
2026-04-28 22:04 35.31213 74.03791 28076 ft 423 kts 228°
2026-04-28 22:04 35.27224 73.98498 28084 ft 423 kts 228°
2026-04-28 22:05 35.23237 73.93214 28091 ft 422 kts 228°
2026-04-28 22:05 35.19250 73.87940 28100 ft 421 kts 228°
2026-04-28 22:06 35.15287 73.82715 28102 ft 421 kts 228°
2026-04-28 22:06 35.11299 73.77458 28103 ft 422 kts 228°
2026-04-28 22:07 35.07310 73.72194 28105 ft 422 kts 228°
2026-04-28 22:07 35.03321 73.66933 28099 ft 422 kts 228°
2026-04-28 22:08 34.99320 73.61679 28081 ft 422 kts 228°
2026-04-28 22:08 34.95344 73.56463 28071 ft 422 kts 228°
2026-04-28 22:09 34.91339 73.51230 28056 ft 422 kts 228°
2026-04-28 22:09 34.87330 73.45993 28039 ft 422 kts 228°
2026-04-28 22:10 34.83317 73.40753 28001 ft 423 kts 228°
2026-04-28 22:10 34.79307 73.35519 27987 ft 423 kts 228°
2026-04-28 22:10 34.77304 73.32908 27826 ft 420 kts 228°
2026-04-28 22:11 34.75307 73.30310 27558 ft 418 kts 227°
2026-04-28 22:11 34.73320 73.27735 27299 ft 417 kts 227°
2026-04-28 22:11 34.71334 73.25162 27035 ft 416 kts 227°
2026-04-28 22:11 34.69385 73.22635 26781 ft 415 kts 227°
2026-04-28 22:12 34.67415 73.20078 26525 ft 414 kts 227°
2026-04-28 22:12 34.65446 73.17525 26279 ft 413 kts 227°
2026-04-28 22:12 34.63483 73.14985 26022 ft 411 kts 227°
2026-04-28 22:12 34.61407 73.12612 25771 ft 411 kts 218°
2026-04-28 22:13 34.59017 73.10729 25533 ft 410 kts 207°
2026-04-28 22:13 34.56383 73.09410 25290 ft 409 kts 197°
2026-04-28 22:13 34.53604 73.08705 25045 ft 408 kts 186°
2026-04-28 22:13 34.50775 73.08614 24811 ft 407 kts 178°
2026-04-28 22:14 34.47934 73.08751 24582 ft 406 kts 178°
2026-04-28 22:14 34.45153 73.08877 24353 ft 405 kts 178°
2026-04-28 22:14 34.42344 73.09001 24119 ft 403 kts 178°
2026-04-28 22:14 34.39547 73.09126 23897 ft 402 kts 178°
2026-04-28 22:15 34.36759 73.09252 23670 ft 400 kts 178°
2026-04-28 22:15 34.33983 73.09376 23445 ft 398 kts 178°
2026-04-28 22:15 34.31209 73.09497 23176 ft 397 kts 178°
2026-04-28 22:15 34.28451 73.09615 22911 ft 395 kts 178°
2026-04-28 22:16 34.25709 73.09733 22651 ft 393 kts 178°
2026-04-28 22:16 34.22976 73.09852 22382 ft 392 kts 178°
2026-04-28 22:16 34.20265 73.09973 22115 ft 387 kts 178°
2026-04-28 22:16 34.17591 73.10094 21681 ft 382 kts 178°
2026-04-28 22:17 34.14943 73.10213 21221 ft 380 kts 178°
2026-04-28 22:17 34.12339 73.10326 20755 ft 377 kts 179°
2026-04-28 22:17 34.09689 73.10439 20276 ft 375 kts 178°
2026-04-28 22:17 34.07121 73.10549 19798 ft 373 kts 178°
2026-04-28 22:18 34.04535 73.10664 19318 ft 372 kts 178°
2026-04-28 22:18 34.01950 73.10780 18824 ft 371 kts 178°
2026-04-28 22:18 33.99369 73.10897 18329 ft 371 kts 178°
2026-04-28 22:18 33.96789 73.11013 17804 ft 370 kts 178°
2026-04-28 22:19 33.94224 73.11127 17300 ft 368 kts 178°
2026-04-28 22:19 33.91675 73.11238 16818 ft 366 kts 178°
2026-04-28 22:19 33.89132 73.11208 16042 ft 368 kts 187°
2026-04-28 22:19 33.86603 73.10751 15087 ft 366 kts 188°
2026-04-28 22:20 33.84079 73.10280 14169 ft 365 kts 188°
2026-04-28 22:20 33.81588 73.09812 13500 ft 356 kts 188°
2026-04-28 22:20 33.79218 73.09367 13344 ft 331 kts 188°
2026-04-28 22:20 33.76991 73.08949 12959 ft 318 kts 188°
2026-04-28 22:21 33.74825 73.08545 12325 ft 313 kts 188°
2026-04-28 22:21 33.72687 73.08151 11682 ft 309 kts 188°
2026-04-28 22:21 33.70571 73.07763 11057 ft 305 kts 188°
2026-04-28 22:21 33.68513 73.07384 10459 ft 301 kts 188°
2026-04-28 22:22 33.66425 73.06998 9852 ft 298 kts 188°
2026-04-28 22:22 33.64385 73.06620 9211 ft 294 kts 188°
2026-04-28 22:22 33.62392 73.06262 8637 ft 287 kts 188°
2026-04-28 22:22 33.60463 73.05913 8168 ft 277 kts 187°
2026-04-28 22:23 33.58593 73.05991 7732 ft 266 kts 162°
2026-04-28 22:23 33.57035 73.07066 7275 ft 257 kts 134°
2026-04-28 22:23 33.56123 73.08881 6693 ft 256 kts 104°
2026-04-28 22:23 33.56079 73.10995 6090 ft 256 kts 74°
2026-04-28 22:24 33.56910 73.12845 5446 ft 255 kts 44°
2026-04-28 22:24 33.58468 73.13951 5060 ft 275 kts 14°
2026-04-28 22:24 33.60363 73.14010 4981 ft 275 kts 346°
2026-04-28 22:24 33.62094 73.13051 4994 ft 276 kts 322°
2026-04-28 22:25 33.63343 73.11327 4987 ft 276 kts 297°
2026-04-28 22:25 33.63887 73.09132 4985 ft 276 kts 272°
2026-04-28 22:25 33.63628 73.06871 4959 ft 276 kts 249°
2026-04-28 22:25 33.62646 73.04959 4802 ft 263 kts 224°
2026-04-28 22:26 33.61233 73.03767 4741 ft 236 kts 202°
2026-04-28 22:26 33.59698 73.03294 4535 ft 221 kts 182°
2026-04-28 22:26 33.58171 73.03408 4493 ft 221 kts 173°
2026-04-28 22:26 33.56643 73.03526 4318 ft 220 kts 184°
2026-04-28 22:27 33.55162 73.03125 3977 ft 216 kts 205°
2026-04-28 22:27 33.53959 73.02216 3957 ft 198 kts 223°
2026-04-28 22:27 33.53071 73.00952 4005 ft 198 kts 240°
2026-04-28 22:27 33.52542 72.99445 3969 ft 196 kts 258°
2026-04-28 22:28 33.52425 72.97848 3830 ft 196 kts 276°
2026-04-28 22:28 33.52659 72.96252 3616 ft 194 kts 282°
2026-04-28 22:28 33.52908 72.94671 3380 ft 192 kts 282°
2026-04-28 22:28 33.53154 72.93110 3134 ft 187 kts 283°
2026-04-28 22:29 33.53382 72.91652 2921 ft 168 kts 283°
2026-04-28 22:29 33.53586 72.90353 2716 ft 151 kts 283°
2026-04-28 22:29 33.53779 72.89139 2539 ft 147 kts 283°
2026-04-28 22:29 33.53973 72.87948 2318 ft 145 kts 282°
2026-04-28 22:30 33.54147 72.86755 2135 ft 145 kts 280°
2026-04-28 22:30 33.54330 72.85577 1959 ft 143 kts 281°
2026-04-28 22:30 33.54520 72.84413 1799 ft 142 kts 280°
2026-04-28 22:30 33.54693 72.83300 1769 ft 118 kts 281°
2026-04-28 22:31 33.54815 72.82635 1752 ft 51 kts 302°
2026-04-28 22:31 33.54933 72.82461 1762 ft 14 kts 311°
2026-04-28 22:31 33.55066 72.82451 1762 ft 24 kts 12°
2026-04-28 22:31 33.55215 72.82482 1772 ft 21 kts 13°
2026-04-28 22:32 33.55358 72.82515 1772 ft 21 kts
2026-04-28 22:32 33.55476 72.82581 1771 ft 16 kts 90°
2026-04-28 22:32 33.55459 72.82734 1773 ft 22 kts 77°
2026-04-28 22:32 33.55403 72.82838 1770 ft 6 kts 144°
2026-04-28 22:33 33.55392 72.82848 1770 ft 0 kts 144°